Погода в Бордо

Франция     44°50′40″N   0°34′41″E
темп.,
°C
ветер,
м/с
пор.,
м/с
влажн.,
%
обл.,
%
осадки,
мм/ч
давл.,
гПа
погр.,
м
11 апреля, вс
вс1123:00+13ю2486100 0.7 1011168
02:00+12ююз1292100 2.9 1010116
05:00+11зсз51090100 3.6 1011710
08:00+10сз4794100 5.1 1012510
11:00+10ссз5878100 1.1 1015883
14:00+13ссз5646100 1.1 10172057
17:00+13сз664592 0.0 10181874
20:00+10зсз57568 0.0 1020774
12 апреля, пн
пн1223:00+7зсз487892 0.5 1023433
02:00+5с489275 1.1 1026559
05:00+6с477998 0.0 1027768
08:00+4с38895 0.0 1029305
11:00+9ссв35585 0.0 10301028
14:00+12ссв34395 0.0 10301875
17:00+13с45355 0.0 10291966
20:00+10ссв46495 0.0 1030616
13 апреля, вт
вт1323:00+6ссв36620 0.0 1031148
02:00+5св24650 0.0 103286
05:00+3св23720 0.0 103162
08:00+3всв24740 0.0 103193
11:00+10всв355198 0.0 1031682
14:00+14всв344123 0.0 10301569
17:00+15св4539100 0.0 10271681
20:00+12св3752100 0.0 1026519
14 апреля, ср
ср1423:00+8ссв41160100 0.0 1027351
02:00+5св4106387 0.0 1027276
05:00+3св310688 0.0 1026242
08:00+2св310685 0.0 1026245
11:00+9всв574571 0.0 1026700
14:00+14св5731100 0.0 10241328
17:00+15св572948 0.0 10221586
20:00+12ссв49435 0.0 1022608
15 апреля, чт
чт1523:00+8св614502 0.0 1023546
02:00+6св513602 0.0 1024410
05:00+4св412690 0.0 1024319
08:00+3св311730 0.0 1024292
11:00+10всв58450 0.0 1024869
14:00+14св57310 0.0 10221579
17:00+16св56280 0.0 10201887
20:00+12ссв48420 0.0 1020606